Regional Weather Roundup
Issued by NWS

Home | Current Version | Previous Version | Text Only | Print | Product List | Glossary Off
Versions: 1 2 3 4 5 6 7 8 9 10 11 12 13 14 15 16 17 18 19 20 21 22 23 24 25 26 27 28 29 30 31 32 33 34 35 36 37 38 39 40 41 42 43 44 45 46 47 48 49 50

000
ASUS43 KIND 311159
RWRIN

WEATHER ROUNDUP FOR INDIANA
NATIONAL WEATHER SERVICE INDIANAPOLIS IN
800 AM EDT THU JUL 31 2014

NOTE: "FAIR" INDICATES FEW OR NO CLOUDS BELOW 12,000 FEET WITH NO
SIGNIFICANT WEATHER AND/OR OBSTRUCTIONS TO VISIBILITY.

* - STATION DOES NOT REPORT WEATHER SUCH AS PRECIPITATION OR FOG.

+ - STATION NOT QUALITY CONTROLLED BY THE NATIONAL WEATHER SERVICE.
    USE DATA WITH CAUTION...ESPECIALLY DEWPOINT AND RELATIVE
    HUMIDITY OBSERVATIONS.

INZ001>003-010>013-019-020-311300-
NORTHWEST INDIANA

CITY           SKY/WX    TMP DP  RH WIND       PRES   REMARKS
GARY /AIRPORT/ MOSUNNY   63  59  88 SW7       30.05R FOG
KNOX *+        SUNNY     53  51  94 CALM      30.05R
MONTICELLO +   SUNNY     57  56  99 CALM      30.06R FOG
VALPARAISO     SUNNY     60  57  89 SW6       30.06R FOG
6HR MIN TEMP:  54; 6HR MAX TEMP:  60;


$$

LMZ046-743>745-311300-
SOUTHERN LAKE MICHIGAN

STATION/POSITION TIME  TEMP WIND        PRES
                       AIR  DIR/SP/G
                 (UTC) (F)  (DEG/KT/KT) (MB)
MICHIGAN CITY    1100   64  190/  7/ 10   N/A

$$

INZ004-005-014>016-021>024-311300-
NORTH CENTRAL INDIANA

CITY           SKY/WX    TMP DP  RH WIND       PRES   REMARKS
GOSHEN         SUNNY     58  55  90 CALM      30.05S FOG
6HR MIN TEMP:  53; 6HR MAX TEMP:  58;

SOUTH BEND     SUNNY     59  56  89 SW7       30.05S
6HR MIN TEMP:  56; 6HR MAX TEMP:  59;

WARSAW +       SUNNY     54  54 100 CALM      30.06R FOG

$$

INZ006>009-017-018-025>027-311300-
NORTHEAST INDIANA

CITY           SKY/WX    TMP DP  RH WIND       PRES   REMARKS
ANGOLA *+      SUNNY     55  54  94 CALM      30.05S
FORT WAYNE     SUNNY     59  57  93 W3        30.07R FOG
6HR MIN TEMP:  56; 6HR MAX TEMP:  61;


$$

INZ028-029-035-036-043>045-051>053-311300-
WEST CENTRAL INDIANA

CITY           SKY/WX    TMP DP  RH WIND       PRES   REMARKS
GREENCASTLE +  SUNNY     59  59 100 CALM      30.09S FOG
LAFAYETTE      MOSUNNY   59  58  96 CALM      30.07R FOG
6HR MIN TEMP:  56; 6HR MAX TEMP:  61;

TERRE HAUTE    SUNNY     59  57  93 CALM      30.09R
6HR MIN TEMP:  54; 6HR MAX TEMP:  61;


$$

INZ030>032-037>040-046>048-054>057-064-065-311300-
CENTRAL INDIANA

CITY           SKY/WX    TMP DP  RH WIND       PRES   REMARKS
COLUMBUS       SUNNY     59  59 100 CALM      30.09R FOG
INDIANAPOLIS   MOSUNNY   62  59  90 SW7       30.08R
6HR MIN TEMP:  59; 6HR MAX TEMP:  63;

-EAGLE CREEK   SUNNY     62  59  90 CALM      30.07S
6HR MIN TEMP:  60; 6HR MAX TEMP:  64;

KOKOMO *+      SUNNY     57  57 100 CALM      30.07S
MT COMFORT *+  SUNNY     59 N/A N/A CALM      30.08S
SHELBYVILLE    SUNNY     62  60  93 SW3       30.08S FOG
6HR MIN TEMP:  60; 6HR MAX TEMP:  63;


$$

INZ033-034-041-042-049-050-058-059-311300-
EAST CENTRAL INDIANA

CITY           SKY/WX    TMP DP  RH WIND       PRES   REMARKS
MUNCIE         SUNNY     62  59  90 SW3       30.08R FOG
6HR MIN TEMP:  58; 6HR MAX TEMP:  64;


$$

INZ060-061-067>069-081>083-085>088-311300-
SOUTHWEST INDIANA

CITY           SKY/WX    TMP DP  RH WIND       PRES   REMARKS
EVANSVILLE     SUNNY     63  59  87 CALM      30.09S
6HR MIN TEMP:  60; 6HR MAX TEMP:  67;


$$

INZ062-063-066-070>080-084-089>092-311300-
SOUTH CENTRAL AND SOUTHEAST INDIANA

CITY           SKY/WX    TMP DP  RH WIND       PRES   REMARKS
BLOOMINGTON    SUNNY     61  59  93 CALM      30.09S
6HR MIN TEMP:  57; 6HR MAX TEMP:  62;

SEYMOUR +      SUNNY     59  52  77 CALM      30.09

$$



USA.gov is the U.S. government's official web portal to all federal, state and local government web resources and services.